Location: Hackberry
(29.5783°N, 96.8797°W)
Time: 02:50:19
(UTC+00:00)

Courier 1B - Pass Details

Date: 19 November 2024
Orbit: 962 x 1208 km, 28.3° (Epoch: 03 December)

Event Time Altitude Azimuth Distance (km) Brightness Sun altitude
Rises 23:52:23 0° 274° (W) 3,646 11.9 -5.3°
Reaches altitude 10° 23:55:19 10° 264° (W) 2,688 11.4 -5.9°
Maximum altitude 00:00:54 31° 204° (SSW) 1,609 9.2 -7.0°
Drops below altitude 10° 00:06:32 10° 144° (SE) 2,710 9.7 -8.2°
Sets 00:09:30 0° 134° (SE) 3,681 10.2 -8.8°
